Retour au catalogue

SL-8 DEB

ActifLEO
NORAD 15033·DEBRIS·🇷🇺 Russia

Lancé Jun 8, 1984 depuis Plesetsk Cosmodrome

Loading…

Prochains Passages (prochaines 24 heures)

TLE

FraisSource: Space-Track

Époque: Sep 14, 2026, 18:25 UTC

1 15033U 84056C   26257.76766079  .00000782  00000-0  20649-3 0  9996
2 15033  74.0653 260.6983 0010316  93.7171 321.1105 14.50545894215367

Suivez SL-8 DEB en temps réel avec AllMySat

Download on the App Store